Location: ?
(35.4214°N, 139.3011°E)
Time: 22:10:50
(UTC+00:00)

DELTA 2 R/B (1) - Pass Details

Date: 14 July 2020
Orbit: 790 x 803 km, 39.6° (Epoch: 10 August)

Event Time Altitude Azimuth Distance (km) Brightness Sun altitude
Rises 11:06:48 0° 277° (W) 3,279 7.9 -12.5°
Reaches altitude 10° 11:09:20 10° 282° (WNW) 2,352 7.1 -12.9°
Maximum altitude 11:14:47 55° 0° (N) 944 4.2 -13.8°
Drops below altitude 10° 11:20:15 10° 79° (ENE) 2,360 5.7 -14.6°
Enters shadow 11:20:50 - 80° (E) 2,575 5.9 -14.7°
